Weather History for Pescara, Italy

Change the Weather History Date:

Thursday, March 7, 2013

  Actual Average Record
Temperature  
Mean Temperature 50 °F -  
Max Temperature 60 °F 59 °F 68 °F (2007)
Min Temperature 41 °F 41 °F 33 °F (2005)
Degree Days  
Heating Degree Days 14    
Moisture  
Dew Point 45 °F    
Average Humidity 81    
Maximum Humidity 88    
Minimum Humidity 63    
Precipitation  
Precipitation 0.00 in 0.08 in - ()
Sea Level Pressure  
Sea Level Pressure 29.71 in    
Wind  
Wind Speed 2 mph ()    
Max Wind Speed 7 mph    
Max Gust Speed -    
Visibility 2.4 miles    
Events Fog    
Averages and records for this station are not official NWS values.
T = Trace of Precipitation, MM = Missing Value Source: Averaged Metar Reports

Daily Weather History Graph

Daily Weather History Graph

Search for Another Location

Airport:

Trip Planner

Search our weather history database for the weather conditions in past years. The results will help you decide how hot, cold, wet, or windy it might be!

Date:

Astronomy

Mar. 07, 2013 Rise Set
Actual Time 6:28 AM CET 6:00 PM CET
Civil Twilight 6:00 AM CET 6:28 PM CET
Nautical Twilight 5:28 AM CET 7:00 PM CET
Astronomical Twilight 4:55 AM CET 7:33 PM CET
Moon 3:19 AM CET (3/7) 1:24 PM CET (3/7)
Length of Visible Light 12h 27m
Length of Day
11h 31m
Waning Crescent, 22% of the Moon is Illuminated
Mar 7
Waning Crescent
Mar 11
New
Mar 19
First Quarter
Mar 27
Full
Apr 3
Last Quarter

Hourly Weather History & Observations

Time (CET) Temp. Windchill Dew Point Humidity Pressure Visibility Wind Dir Wind Speed Gust Speed Precip Events Conditions
12:50 AM 44.6 °F - 39.2 °F 81% 29.71 in 0.6 mi Variable 1.2 mph - N/A Fog Shallow Fog
1:50 AM 41.0 °F - 37.4 °F 87% 29.71 in 0.4 mi Variable 1.2 mph - N/A Fog Fog
2:50 AM 41.0 °F - 37.4 °F 87% 29.71 in 0.5 mi Variable 1.2 mph - N/A Fog Fog
3:50 AM 42.8 °F 41.1 °F 37.4 °F 81% 29.68 in 0.9 mi Variable 3.5 mph - N/A   Scattered Clouds
4:50 AM 42.8 °F - 37.4 °F 81% 29.68 in 0.6 mi Variable 1.2 mph - N/A   Scattered Clouds
5:50 AM 41.0 °F - 37.4 °F 87% 29.68 in 0.6 mi Variable 2.3 mph - N/A   Scattered Clouds
6:50 AM 42.8 °F - 39.2 °F 87% 29.68 in 0.7 mi Variable 1.2 mph - N/A   Mostly Cloudy
7:50 AM 46.4 °F - 42.8 °F 87% 29.71 in 1.9 mi Variable 2.3 mph - N/A   Mostly Cloudy
8:50 AM 48.2 °F - 44.6 °F 87% 29.74 in 1.9 mi Variable 1.2 mph - N/A   Mostly Cloudy
9:50 AM 51.8 °F - 48.2 °F 88% 29.71 in 2.2 mi Variable 3.5 mph - N/A   Mostly Cloudy
10:50 AM 55.4 °F - 48.2 °F 77% 29.74 in 2.2 mi Variable 1.2 mph - N/A   Mostly Cloudy
11:50 AM 59.0 °F - 50.0 °F 72% 29.74 in 3.1 mi Variable 1.2 mph - N/A   Mostly Cloudy
12:50 PM 60.8 °F - 48.2 °F 63% 29.74 in 4.3 mi Variable 2.3 mph - N/A   Mostly Cloudy
1:50 PM - - - N/A% 29.71 in 3.7 mi NE 6.9 mph - N/A   Mostly Cloudy
2:50 PM 59.0 °F - 50.0 °F 72% 29.68 in 5.0 mi NE 6.9 mph - N/A   Scattered Clouds
3:50 PM 57.2 °F - 50.0 °F 77% 29.68 in 5.0 mi NE 6.9 mph - N/A   Scattered Clouds
4:50 PM 55.4 °F - 50.0 °F 82% 29.71 in 5.0 mi NE 5.8 mph - N/A   Scattered Clouds
5:50 PM 55.4 °F - 48.2 °F 77% 29.68 in 4.3 mi Variable 3.5 mph - N/A   Scattered Clouds
6:17 PM 53.6 °F - 48.2 °F 82% 29.71 in 2.5 mi Variable 2.3 mph - N/A   Scattered Clouds
6:50 PM 55.4 °F - 48.2 °F 77% 29.71 in 2.5 mi Variable 2.3 mph - N/A   Mostly Cloudy
7:50 PM 53.6 °F - 48.2 °F 82% 29.71 in 2.5 mi Variable 1.2 mph - N/A   Partly Cloudy
8:50 PM 51.8 °F - 46.4 °F 82% 29.74 in 1.9 mi Variable 1.2 mph - N/A   Partly Cloudy
9:50 PM 50.0 °F - 46.4 °F 87% 29.74 in 2.2 mi Variable 2.3 mph - N/A   Scattered Clouds
10:50 PM 50.0 °F - 46.4 °F 87% 29.74 in 2.5 mi Variable 1.2 mph - N/A   Scattered Clouds
11:50 PM 50.0 °F - 44.6 °F 82% 29.74 in 2.5 mi Variable 1.2 mph - N/A   Scattered Clouds